Temperature
9 7 7 8 8 9 9 9 9 9 10 10 9 9 10 10 10 10 10 10 11 11 11 11 11 11 11 11 11 11 10 10 10 11 11 11 11 11 10 10 10 11 11 11
8 8 8 9 9 9 9 9 9 9 10 10 9 9 9 9 9 10 10 10 10 11 11 11 11 11 11 11 10 10 10 10 10 10 10 10 10 10 10 10 10 10 10 10
8 8 9 9 9 9 9 8 8 9 9 9 9 9 9 9 9 10 10 10 10 10 11 10 10 10 10 10 10 10 10 10 10 10 10 10 10 10 10 10 10 10 10 10
8 8 9 9 9 9 8 9 9 9 8 7 8 8 9 9 8 8 9 10 10 10 10 10 10 10 10 10 10 10 10 10 10 10 10 10 10 10 10 10 9 9 9 10
7 8 8 9 9 9 8 9 8 8 7 7 7 7 8 8 8 8 8 10 10 10 10 10 10 10 10 10 10 10 9 9 9 9 9 9 9 10 10 9 9 9 9 9
8 8 8 8 9 9 8 8 7 6 6 7 8 7 8 7 8 8 8 9 10 10 10 10 10 10 10 10 10 9 9 9 9 9 9 9 9 9 9 9 9 9 9 9
7 8 8 8 8 8 8 7 6 7 6 7 8 7 8 9 8 8 8 9 10 10 10 10 10 10 10 9 9 9 9 9 9 9 9 9 9 9 9 9 9 9 8 8
7 7 7 8 8 7 7 7 7 8 7 7 7 7 8 9 9 9 9 10 10 10 9 10 10 10 9 9 9 9 9 9 9 9 8 8 8 9 9 8 8 8 8 8
6 7 7 8 8 8 7 6 7 6 6 6 7 7 8 9 8 8 8 9 9 9 9 9 9 9 9 9 9 9 8 8 8 8 8 8 8 8 8 8 8 8 8 7
7 6 7 7 8 8 7 6 5 6 7 7 8 7 8 9 8 7 7 8 9 9 9 9 9 9 9 9 8 8 8 8 8 8 8 8 8 8 7 7 7 7 7 7
7 6 6 6 7 7 7 7 6 5 5 6 7 8 8 8 8 7 7 8 9 9 9 9 9 9 9 8 8 8 8 8 8 8 8 7 7 7 7 7 7 7 7 6
6 5 4 5 6 7 7 7 6 6 6 5 5 7 8 7 7 8 8 9 9 9 9 9 8 8 8 8 8 8 8 7 7 7 7 7 7 7 7 7 6 6 6 6
6 5 5 6 6 6 6 6 6 5 5 4 5 7 8 7 7 8 8 8 9 8 8 8 8 8 8 8 8 7 7 7 7 7 6 6 6 6 6 6 6 6 6 5
6 4 5 6 6 5 5 5 5 5 4 4 4 6 7 7 7 7 8 8 8 8 8 8 8 8 7 7 7 7 7 7 6 6 6 6 6 6 6 5 5 5 5 5
5 4 4 5 5 5 5 5 5 4 4 4 5 5 7 7 6 6 7 7 7 7 7 7 7 7 7 7 7 7 6 6 6 6 5 5 5 5 5 5 5 5 4 4
3 4 4 4 5 5 5 5 5 5 5 5 5 5 6 6 6 6 6 6 6 7 7 7 7 7 6 6 6 6 6 6 5 5 5 5 5 5 4 4 4 4 4 4
3 3 3 3 4 4 4 5 5 5 5 5 5 6 5 5 5 5 6 6 6 6 6 6 6 6 6 6 6 5 5 5 5 5 4 4 4 4 4 4 4 4 3 3
2 2 2 3 3 4 6 6 6 5 5 5 5 5 5 5 5 6 6 6 6 6 6 6 6 6 6 5 5 5 5 4 4 4 4 4 4 3 3 3 3 3 3 3
2 2 2 2 3 3 4 5 5 4 4 4 4 4 4 5 4 5 5 6 6 6 6 6 5 5 5 5 5 4 4 4 4 4 3 3 3 3 3 3 3 2 2 2
2 2 2 2 3 3 4 5 5 5 4 4 3 3 3 3 2 3 5 5 5 5 5 5 5 5 4 4 4 4 4 3 3 3 3 3 2 2 2 2 2 2 2 1
1 1 1 2 2 3 3 4 5 4 4 4 4 4 3 2 3 4 4 4 4 4 4 4 4 4 4 3 3 3 3 3 3 3 2 2 2 2 2 1 1 1 1 1
1 1 1 1 2 2 3 3 3 3 4 4 4 4 3 3 3 3 3 3 3 3 3 3 3 3 3 3 3 2 2 2 2 2 2 2 1 1 1 1 1 1 0 0
1 2 1 2 2 3 3 3 4 4 3 3 3 3 3 3 3 3 3 2 2 2 2 2 2 2 2 2 2 2 2 2 2 1 1 1 1 1 0 0 0 0 -0 -0
0 1 1 1 1 2 3 3 3 3 3 3 3 3 3 2 2 2 2 2 2 2 2 2 2 2 2 2 1 1 1 1 1 1 1 1 0 0 0 -0 -0 -0 -0 -1
0 1 0 0 1 1 2 3 3 3 2 2 2 2 2 2 2 2 2 2 1 1 1 1 1 1 1 1 1 1 1 1 0 0 0 -0 -0 -0 -0 -1 -1 -1 -1 -1
-0 0 0 0 1 1 1 2 2 2 2 2 2 1 1 1 1 1 1 1 1 1 1 0 0 0 0 1 1 1 0 0 -0 -0 -0 -1 -1 -1 -1 -1 -1 -1 -1 -2
Wind_Speed
1 3 3 6 6 5 4 3 5 6 3 2 6 9 9 6 4 4 4 4 5 5 4 4 5 6 6 6 6 6 6 5 5 4 3 3 2 1 2 2 3 4 4 4
2 3 6 4 4 3 2 3 4 5 3 2 5 9 8 5 4 6 7 7 6 5 3 4 5 5 6 7 6 6 6 6 5 4 3 2 3 2 1 1 2 3 4 4
5 5 3 2 2 3 4 5 4 4 4 2 3 7 5 4 3 3 5 6 7 8 7 6 6 5 6 6 7 7 6 6 5 5 4 4 3 2 1 1 1 1 3 3
3 4 2 2 3 3 4 4 4 2 1 3 0 4 7 4 4 5 6 6 7 6 6 6 6 6 6 6 6 6 6 6 5 6 6 6 4 3 3 2 1 1 2 3
4 3 3 4 4 4 5 2 1 1 2 3 2 3 8 3 6 8 8 8 7 7 7 7 6 6 6 5 6 6 6 5 5 5 6 5 4 3 2 1 2 2 1 2
4 3 3 4 2 3 2 3 4 3 3 3 4 4 7 5 8 7 8 8 8 8 7 6 5 5 4 4 5 6 6 5 5 6 6 7 6 4 3 2 3 2 1 1
3 3 2 2 2 1 3 4 3 4 2 6 3 4 8 7 7 8 9 9 8 8 8 7 7 6 5 5 5 5 7 6 5 6 6 6 6 6 5 4 4 3 2 1
3 5 5 3 4 4 4 6 6 4 5 5 3 6 7 6 3 3 5 7 7 7 7 7 8 8 7 6 6 6 7 6 6 6 6 5 5 4 4 5 4 4 3 3
6 5 2 3 2 5 4 4 5 4 1 3 5 6 7 1 2 2 4 5 6 7 7 7 7 7 6 6 6 6 6 5 5 6 6 5 5 5 5 4 4 3 3 2
5 3 3 1 2 0 4 5 4 4 3 4 5 5 5 4 3 2 4 5 5 5 6 6 6 6 6 6 5 5 5 5 4 5 5 5 5 5 5 4 4 4 3 3
4 4 1 0 5 6 4 3 4 4 4 4 4 7 5 6 6 6 7 6 6 7 7 6 5 5 5 4 4 4 4 4 3 3 4 4 4 4 4 4 4 4 3 3
4 4 3 5 4 3 5 6 6 4 4 4 3 7 5 3 3 5 6 5 5 5 5 4 4 4 4 4 4 5 4 4 4 4 4 4 3 3 4 4 4 4 4 4
5 5 2 3 2 1 3 4 4 4 3 5 5 7 3 2 1 2 3 4 3 3 3 3 3 4 4 5 4 5 5 4 3 3 4 4 4 4 4 4 4 4 4 4
4 5 7 9 6 5 5 5 5 5 5 6 8 8 7 4 2 2 3 3 3 3 4 4 4 4 4 4 4 5 4 4 4 4 4 4 4 4 4 4 4 4 4 4
3 5 5 6 4 4 6 8 8 10 10 9 9 9 11 7 5 5 4 3 3 3 3 4 4 4 4 4 4 4 4 4 4 4 4 5 4 4 4 4 4 4 4 4
2 3 2 3 5 5 7 10 11 12 10 11 10 12 8 4 2 2 3 3 3 4 4 4 4 4 4 4 5 4 4 4 4 4 4 4 4 4 4 4 4 4 4 4
3 4 2 4 2 2 8 10 12 8 7 9 12 11 4 2 4 4 4 4 4 4 4 4 4 5 5 5 5 5 5 4 4 4 4 4 4 5 5 5 4 5 5 4
6 5 3 2 2 8 7 4 7 8 7 7 6 4 4 5 4 3 4 5 4 4 4 4 3 4 4 4 4 4 4 4 4 4 4 4 4 5 5 5 5 5 4 5
8 7 4 3 5 7 6 3 4 5 5 4 6 4 3 1 1 2 2 3 4 4 4 4 4 3 3 3 4 3 3 4 4 5 5 5 5 6 6 6 6 5 4 5
5 6 5 4 5 7 5 2 1 4 3 3 2 3 2 1 1 4 3 2 2 2 2 2 2 2 2 3 3 4 4 4 5 6 6 6 5 6 7 7 6 5 5 5
4 5 7 7 6 7 5 3 2 4 5 2 1 2 2 3 4 4 3 3 2 2 2 2 1 2 3 3 3 4 5 6 7 5 5 5 5 6 6 6 5 5 5 5
6 6 6 6 6 7 2 3 4 4 1 1 1 2 3 4 3 3 3 3 2 2 2 2 1 3 3 2 3 5 6 7 5 5 5 5 5 5 5 5 5 5 5 5
6 6 5 6 6 2 2 4 3 2 1 2 2 3 3 3 3 3 3 3 3 3 3 2 2 3 4 3 4 6 7 5 4 5 5 5 5 4 4 5 5 4 4 5
3 2 2 3 5 3 2 1 1 1 2 2 2 2 2 3 3 3 3 4 3 3 3 3 3 4 5 4 5 6 6 5 5 5 5 5 4 4 4 4 5 5 5 5
4 2 2 4 4 3 2 2 2 2 1 2 2 2 3 3 4 4 4 4 4 4 4 3 4 5 6 6 5 5 5 4 5 5 5 5 5 5 5 5 5 6 6 7
4 5 5 6 5 4 4 3 2 2 3 3 3 3 3 3 4 4 4 4 4 4 4 4 5 6 6 6 6 6 5 5 5 5 5 5 4 4 4 4 5 7 8 10
Wind_Direction
138 103 208 217 203 204 197 212 255 265 273 263 253 265 273 271 241 225 215 200 193 204 203 173 166 161 154 151 150 148 146 147 135 124 123 117 110 89 70 73 87 95 92 86
61 243 237 216 208 210 218 239 264 287 302 253 267 276 274 262 228 209 202 200 198 194 185 177 169 163 163 163 163 155 156 157 155 149 148 141 135 124 123 86 69 93 94 88
189 241 230 184 196 208 237 214 230 257 321 320 306 303 274 265 232 211 202 198 196 193 192 186 179 175 168 171 172 168 166 166 165 151 133 116 91 74 72 59 22 83 106 97
230 255 228 201 224 191 248 232 215 228 0 287 250 281 279 246 246 229 218 206 201 198 189 179 177 175 179 184 175 166 168 169 171 159 155 154 155 166 189 182 185 143 112 105
238 226 207 217 226 188 221 248 214 202 181 299 252 218 282 249 240 239 224 210 202 195 186 179 178 179 177 173 169 166 165 173 174 169 164 159 163 169 162 161 157 144 105 101
243 248 211 210 218 179 170 41 38 49 77 283 232 193 274 231 224 228 220 209 198 190 185 178 173 160 158 156 160 162 165 176 175 170 169 172 176 174 172 181 168 161 146 127
287 273 251 160 113 59 98 89 32 359 344 254 248 208 254 258 237 215 207 202 194 183 177 177 172 172 171 168 169 168 169 179 181 176 182 184 183 180 187 190 181 173 174 193
194 262 226 193 179 180 185 152 162 203 233 276 291 235 255 283 280 225 192 180 179 180 182 184 183 181 181 178 175 171 176 184 184 184 190 191 187 184 187 186 181 186 194 203
186 237 259 199 185 153 156 188 174 144 191 263 268 277 299 328 25 77 138 152 176 184 189 191 186 181 181 181 183 179 176 180 188 191 186 188 193 187 189 188 185 191 200 201
170 217 251 235 90 166 163 152 117 143 178 252 281 268 249 236 227 193 172 181 190 182 187 191 190 186 186 187 185 176 176 183 187 190 192 191 190 188 187 181 192 196 199 191
159 171 269 290 197 192 162 165 159 157 178 184 254 270 230 214 206 200 204 197 192 191 190 191 191 187 182 177 172 174 182 179 179 187 185 182 186 184 182 189 200 198 198 196
159 142 213 244 254 219 188 186 160 171 223 198 208 267 276 223 211 194 195 193 191 190 192 188 183 174 174 180 179 180 183 184 189 188 182 186 184 179 187 201 208 200 201 203
152 141 128 330 310 249 214 203 180 154 150 181 195 258 305 22 41 184 180 188 187 176 177 178 179 183 193 195 193 192 192 195 189 177 179 185 190 192 203 211 211 208 208 212
148 165 189 203 212 186 221 226 199 170 194 215 222 246 279 294 269 242 226 209 194 190 186 187 195 204 206 201 196 196 201 197 188 178 184 197 207 208 212 214 212 214 212 215
129 198 216 234 232 205 222 228 212 210 208 213 231 234 253 252 244 236 223 207 194 197 196 193 198 206 205 201 201 199 201 199 189 183 197 214 218 214 210 211 215 217 219 224
128 192 207 252 233 230 246 239 227 226 224 232 248 259 257 252 245 248 220 198 204 214 216 209 203 206 211 209 208 205 206 203 187 194 213 221 220 220 218 219 218 218 223 228
176 164 179 241 250 283 252 228 218 215 212 209 233 243 243 247 237 226 212 206 217 228 225 220 215 217 220 217 209 208 208 196 190 204 215 218 220 225 229 225 220 223 227 228
174 165 178 211 165 233 243 221 202 209 231 222 225 233 221 229 234 228 207 200 221 229 231 231 226 230 231 221 215 209 202 196 202 214 223 223 222 230 231 226 228 231 228 227
189 175 181 191 226 267 283 256 187 196 246 243 229 245 270 274 36 309 240 201 212 223 227 229 225 226 230 228 215 200 208 206 212 223 229 230 225 229 229 231 237 235 230 236
181 181 185 193 212 236 246 268 206 134 252 261 210 229 246 103 210 263 274 264 241 240 232 234 237 226 232 238 198 193 216 217 227 231 233 232 227 229 230 232 237 237 233 239
154 182 208 215 229 255 258 271 110 174 238 237 196 198 187 200 221 249 275 288 277 273 265 248 237 244 246 233 196 213 225 232 235 234 232 231 230 233 234 235 236 234 236 241
180 183 198 195 218 246 233 120 173 214 213 187 194 198 198 218 242 260 269 274 287 296 293 275 259 271 268 233 207 230 241 243 237 228 230 234 235 240 241 231 237 232 227 239
203 197 194 200 220 247 187 194 207 164 189 224 229 232 213 227 249 261 269 267 271 268 268 263 253 270 273 247 220 235 250 245 231 229 235 240 243 245 236 226 231 238 230 235
249 195 182 236 260 264 267 234 204 198 220 236 233 242 226 242 258 271 274 271 271 273 272 268 266 270 271 262 245 239 247 235 226 234 241 239 238 246 243 231 224 227 230 235
224 184 203 242 261 288 277 228 231 248 240 271 277 246 232 236 256 262 271 273 270 272 273 264 258 262 265 264 261 258 245 226 230 238 242 242 239 238 244 242 233 232 232 230
220 204 212 241 237 224 253 252 236 238 251 254 260 270 258 236 249 260 268 269 263 264 266 267 265 265 268 265 261 258 245 226 226 241 244 241 240 239 239 245 262 248 244 252
Height
1502 1506 1507 1505 1504 1504 1505 1507 1506 1502 1497 1498 1497 1494 1489 1487 1487 1487 1487 1487 1487 1488 1489 1491 1492 1494 1495 1497 1499 1501 1502 1504 1505 1507 1509 1510 1511 1512 1513 1514 1515 1516 1517 1518
1505 1505 1500 1500 1501 1502 1504 1506 1506 1501 1497 1498 1496 1493 1487 1485 1485 1484 1485 1485 1486 1487 1488 1489 1491 1492 1494 1495 1497 1499 1501 1503 1504 1506 1508 1509 1510 1511 1512 1513 1514 1514 1515 1516
1502 1500 1497 1498 1500 1502 1503 1505 1504 1503 1500 1497 1497 1494 1487 1484 1482 1482 1483 1483 1484 1485 1485 1487 1489 1490 1492 1493 1495 1497 1500 1502 1504 1505 1507 1507 1508 1510 1511 1511 1512 1513 1514 1515
1500 1497 1496 1497 1498 1499 1502 1499 1499 1501 1504 1506 1502 1504 1488 1484 1482 1480 1480 1480 1481 1482 1483 1485 1486 1488 1490 1492 1494 1496 1498 1500 1502 1504 1505 1505 1506 1508 1509 1510 1510 1511 1512 1513
1498 1496 1496 1496 1495 1496 1498 1496 1498 1500 1503 1506 1503 1505 1491 1483 1482 1478 1476 1477 1478 1480 1481 1482 1484 1486 1489 1491 1493 1495 1497 1499 1500 1502 1503 1504 1505 1507 1508 1508 1508 1509 1510 1511
1496 1493 1493 1493 1493 1493 1495 1497 1500 1504 1507 1507 1499 1502 1491 1483 1476 1473 1472 1473 1475 1478 1480 1481 1483 1485 1487 1489 1491 1493 1495 1497 1498 1500 1501 1502 1504 1505 1505 1506 1506 1507 1508 1509
1496 1493 1491 1491 1493 1494 1496 1503 1512 1511 1514 1504 1496 1496 1486 1472 1469 1468 1468 1470 1472 1475 1478 1480 1481 1483 1485 1487 1489 1490 1492 1494 1495 1497 1499 1500 1501 1502 1503 1503 1504 1505 1506 1506
1499 1498 1491 1490 1491 1494 1496 1499 1508 1508 1509 1504 1496 1493 1479 1469 1466 1465 1466 1468 1471 1473 1476 1477 1479 1481 1483 1485 1486 1488 1490 1492 1493 1494 1496 1497 1499 1499 1500 1501 1502 1502 1503 1504
1495 1494 1488 1487 1487 1489 1494 1498 1497 1506 1507 1506 1497 1488 1476 1468 1467 1466 1467 1468 1470 1472 1474 1476 1478 1480 1481 1483 1484 1486 1487 1489 1490 1492 1493 1494 1495 1497 1497 1498 1499 1500 1501 1501
1487 1492 1488 1487 1487 1488 1489 1492 1501 1504 1504 1500 1492 1487 1480 1470 1469 1468 1468 1468 1469 1471 1473 1475 1476 1478 1480 1482 1483 1485 1486 1487 1488 1489 1490 1492 1493 1494 1495 1495 1496 1497 1498 1498
1484 1491 1492 1489 1488 1488 1490 1492 1494 1500 1501 1500 1496 1486 1469 1467 1466 1466 1466 1467 1468 1470 1472 1473 1474 1476 1478 1480 1481 1482 1483 1484 1485 1486 1487 1489 1489 1490 1491 1492 1493 1493 1494 1494
1482 1489 1494 1489 1485 1483 1484 1485 1490 1496 1497 1499 1499 1487 1463 1464 1463 1463 1465 1466 1468 1469 1471 1472 1473 1475 1476 1477 1478 1479 1481 1482 1482 1484 1485 1486 1486 1487 1488 1489 1489 1490 1490 1491
1479 1486 1491 1488 1488 1486 1484 1483 1485 1489 1494 1500 1498 1483 1464 1462 1462 1463 1464 1466 1467 1468 1469 1470 1472 1473 1474 1475 1476 1477 1478 1479 1480 1481 1481 1482 1483 1483 1484 1485 1486 1486 1486 1486
1474 1480 1483 1481 1478 1480 1482 1481 1482 1487 1492 1493 1487 1476 1466 1463 1463 1463 1464 1464 1465 1466 1467 1468 1469 1470 1471 1473 1474 1474 1475 1476 1477 1478 1478 1478 1479 1480 1480 1481 1481 1482 1482 1482
1473 1477 1477 1475 1473 1475 1476 1476 1478 1480 1480 1482 1475 1472 1463 1462 1462 1462 1462 1462 1463 1464 1465 1465 1466 1467 1469 1469 1470 1471 1472 1473 1474 1474 1474 1475 1475 1476 1477 1477 1477 1477 1478 1477
1473 1476 1476 1475 1472 1473 1472 1470 1471 1471 1471 1471 1469 1465 1459 1459 1459 1460 1460 1461 1461 1462 1462 1463 1464 1465 1465 1466 1467 1468 1469 1469 1470 1470 1470 1471 1472 1472 1472 1472 1472 1472 1472 1472
1473 1475 1477 1476 1472 1470 1469 1462 1462 1463 1461 1462 1462 1458 1457 1458 1457 1457 1458 1458 1459 1459 1460 1460 1461 1461 1462 1462 1463 1464 1464 1465 1466 1466 1467 1467 1467 1467 1467 1467 1467 1467 1467 1467
1471 1474 1477 1476 1475 1473 1456 1452 1452 1454 1455 1455 1454 1453 1454 1454 1455 1455 1455 1456 1456 1457 1457 1458 1458 1458 1459 1459 1459 1460 1460 1461 1461 1462 1462 1462 1462 1462 1462 1462 1462 1462 1462 1462
1464 1469 1474 1475 1473 1464 1455 1451 1451 1453 1454 1453 1452 1451 1452 1452 1453 1454 1454 1454 1454 1454 1455 1455 1455 1455 1455 1455 1455 1456 1456 1456 1457 1457 1457 1457 1457 1457 1457 1457 1457 1456 1456 1456
1462 1465 1471 1472 1469 1463 1452 1448 1446 1450 1454 1451 1449 1450 1451 1452 1456 1454 1452 1452 1452 1452 1452 1452 1452 1451 1451 1451 1451 1451 1451 1452 1452 1452 1452 1452 1452 1452 1452 1451 1451 1451 1451 1450
1463 1465 1467 1466 1464 1457 1450 1447 1447 1455 1452 1449 1448 1448 1449 1451 1451 1451 1450 1449 1449 1449 1449 1448 1448 1447 1447 1447 1447 1447 1447 1447 1447 1448 1448 1448 1447 1447 1447 1446 1446 1446 1445 1445
1457 1460 1461 1462 1463 1457 1447 1447 1449 1449 1447 1447 1447 1447 1447 1447 1447 1447 1447 1446 1446 1445 1445 1445 1444 1444 1443 1443 1443 1442 1442 1442 1443 1443 1442 1442 1442 1441 1441 1441 1440 1440 1440 1439
1453 1451 1452 1452 1450 1445 1444 1444 1445 1445 1446 1446 1446 1446 1446 1445 1445 1444 1444 1444 1443 1443 1442 1442 1441 1440 1439 1439 1438 1438 1437 1438 1437 1437 1437 1437 1436 1436 1436 1435 1435 1434 1434 1433
1449 1447 1449 1449 1445 1443 1443 1443 1443 1444 1444 1444 1444 1444 1443 1443 1442 1442 1441 1440 1440 1439 1438 1438 1437 1436 1435 1435 1434 1433 1433 1432 1432 1432 1431 1431 1431 1430 1430 1430 1429 1429 1428 1427
1445 1445 1446 1446 1443 1442 1441 1441 1442 1442 1442 1441 1441 1441 1441 1440 1440 1439 1438 1437 1436 1435 1434 1434 1433 1432 1430 1430 1429 1428 1428 1427 1427 1426 1426 1425 1425 1425 1424 1424 1423 1423 1422 1422
1442 1443 1444 1442 1440 1441 1440 1439 1440 1440 1439 1439 1438 1438 1438 1438 1437 1436 1435 1434 1433 1431 1430 1429 1428 1427 1425 1425 1423 1423 1423 1422 1421 1420 1420 1420 1419 1419 1418 1418 1417 1416 1416 1416